EN

Hourly Weather Glasgow

Today, 24 October, Saturday

Time Temperature Precipitation Wind Pressure Humidity
00:00 +3°C° 0 mm 6 mps 747 mmHg 91%
01:00 +4°C° 0 mm 7 mps 746 mmHg 89%
02:00 +4°C° 0 mm 8 mps 745 mmHg 86%
03:00 +5°C° 0 mm 9 mps 744 mmHg 84%
04:00 +6°C° 0.2 mm 11 mps 743 mmHg 85%
05:00 +5°C° 0.2 mm 12 mps 742 mmHg 87%
06:00 +7°C° 0.2 mm 13 mps 741 mmHg 88%
07:00 +7°C° 0.3 mm 13 mps 740 mmHg 88%
08:00 +8°C° 0.3 mm 14 mps 740 mmHg 88%
09:00 +8°C° 0.3 mm 14 mps 739 mmHg 88%
10:00 +8°C° 0.3 mm 12 mps 739 mmHg 85%
11:00 +8°C° 0.3 mm 10 mps 739 mmHg 82%
12:00 +9°C° 0.3 mm 8 mps 739 mmHg 80%
13:00 +9°C° 0.1 mm 8 mps 739 mmHg 80%
14:00 +8°C° 0.1 mm 7 mps 739 mmHg 81%
15:00 +8°C° 0.1 mm 7 mps 739 mmHg 82%
16:00 +6°C° 0 mm 7 mps 739 mmHg 83%
17:00 +6°C° 0 mm 7 mps 738 mmHg 85%
18:00 +5°C° 0 mm 7 mps 738 mmHg 86%
19:00 +5°C° 0 mm 7 mps 738 mmHg 87%
20:00 +4°C° 0 mm 7 mps 739 mmHg 87%
21:00 +4°C° 0 mm 7 mps 739 mmHg 88%
22:00 +3°C° 0 mm 7 mps 739 mmHg 88%
23:00 +3°C° 0 mm 7 mps 738 mmHg 88%

Tomorrow, 25 October, Sunday

Time Temperature Precipitation Wind Pressure Humidity
00:00 +3°C° 0 mm 7 mps 738 mmHg 88%
01:00 +3°C° 0 mm 7 mps 738 mmHg 88%
02:00 +3°C° 0 mm 7 mps 737 mmHg 88%
03:00 +3°C° 0 mm 7 mps 737 mmHg 88%
04:00 +3°C° 0 mm 7 mps 737 mmHg 88%
05:00 +3°C° 0 mm 7 mps 737 mmHg 88%
06:00 +3°C° 0 mm 7 mps 736 mmHg 88%
07:00 +2°C° 0 mm 8 mps 736 mmHg 86%
08:00 +3°C° 0 mm 9 mps 736 mmHg 84%
09:00 +5°C° 0 mm 9 mps 736 mmHg 82%
10:00 +6°C° 0 mm 10 mps 736 mmHg 79%
11:00 +7°C° 0 mm 10 mps 737 mmHg 75%
12:00 +7°C° 0 mm 10 mps 737 mmHg 72%
13:00 +7°C° 0 mm 9 mps 737 mmHg 73%
14:00 +7°C° 0 mm 9 mps 737 mmHg 74%
15:00 +7°C° 0 mm 8 mps 737 mmHg 75%
16:00 +6°C° 0 mm 8 mps 737 mmHg 77%
17:00 +6°C° 0 mm 8 mps 738 mmHg 79%
18:00 +5°C° 0 mm 8 mps 738 mmHg 81%
19:00 +5°C° 0 mm 8 mps 738 mmHg 82%
20:00 +5°C° 0 mm 8 mps 738 mmHg 83%
21:00 +5°C° 0 mm 8 mps 738 mmHg 84%
22:00 +5°C° 0 mm 8 mps 738 mmHg 84%
23:00 +5°C° 0 mm 8 mps 738 mmHg 84%

Day after tomorrow, 26 October, Monday

Time Temperature Precipitation Wind Pressure Humidity
00:00 +5°C° 0 mm 8 mps 738 mmHg 84%
01:00 +5°C° 0 mm 8 mps 738 mmHg 84%
02:00 +5°C° 0 mm 8 mps 738 mmHg 84%
03:00 +5°C° 0 mm 8 mps 738 mmHg 84%
04:00 +5°C° 0 mm 7 mps 738 mmHg 85%
05:00 +6°C° 0 mm 7 mps 738 mmHg 86%
06:00 +6°C° 0 mm 7 mps 738 mmHg 87%
07:00 +6°C° 0 mm 7 mps 738 mmHg 87%
08:00 +6°C° 0 mm 7 mps 738 mmHg 87%
09:00 +7°C° 0 mm 6 mps 738 mmHg 87%
10:00 +8°C° 0.1 mm 6 mps 738 mmHg 83%
11:00 +9°C° 0.1 mm 6 mps 738 mmHg 80%
12:00 +10°C° 0.1 mm 5 mps 739 mmHg 76%
13:00 +9°C° 0.2 mm 5 mps 739 mmHg 79%
14:00 +10°C° 0.2 mm 4 mps 739 mmHg 81%
15:00 +10°C° 0.2 mm 4 mps 739 mmHg 84%
16:00 +9°C° 0.1 mm 3 mps 739 mmHg 87%
17:00 +8°C° 0.1 mm 3 mps 740 mmHg 89%
18:00 +6°C° 0.1 mm 2 mps 740 mmHg 92%
19:00 +6°C° 0.1 mm 2 mps 740 mmHg 92%
20:00 +6°C° 0.1 mm 2 mps 741 mmHg 92%
21:00 +7°C° 0.1 mm 1 mps 741 mmHg 93%
22:00 +5°C° 0 mm 2 mps 741 mmHg 93%
23:00 +5°C° 0 mm 2 mps 741 mmHg 93%

, 27 October, Tuesday

Time Temperature Precipitation Wind Pressure Humidity
00:00 +5°C° 0 mm 2 mps 741 mmHg 93%
01:00 +5°C° 0 mm 2 mps 741 mmHg 93%
02:00 +5°C° 0 mm 2 mps 741 mmHg 93%
03:00 +4°C° 0 mm 2 mps 741 mmHg 92%
04:00 +4°C° 0 mm 2 mps 741 mmHg 92%
05:00 +5°C° 0 mm 1 mps 741 mmHg 92%
06:00 +5°C° 0 mm 1 mps 741 mmHg 92%
07:00 +5°C° 0 mm 2 mps 741 mmHg 91%
08:00 +5°C° 0 mm 2 mps 741 mmHg 90%
09:00 +6°C° 0 mm 2 mps 741 mmHg 89%
10:00 +7°C° 0 mm 3 mps 741 mmHg 87%
11:00 +7°C° 0 mm 4 mps 740 mmHg 85%
12:00 +8°C° 0 mm 5 mps 740 mmHg 83%
13:00 +8°C° 0 mm 5 mps 740 mmHg 84%
14:00 +8°C° 0 mm 6 mps 739 mmHg 86%
15:00 +7°C° 0 mm 6 mps 738 mmHg 87%
16:00 +6°C° 0.1 mm 7 mps 738 mmHg 88%
17:00 +6°C° 0.1 mm 7 mps 737 mmHg 89%
18:00 +6°C° 0.1 mm 8 mps 736 mmHg 90%
19:00 +8°C° 1.6 mm 7 mps 736 mmHg 92%
20:00 +8°C° 1.6 mm 7 mps 735 mmHg 95%
21:00 +8°C° 1.6 mm 6 mps 735 mmHg 97%
22:00 +8°C° 0.2 mm 7 mps 734 mmHg 95%
23:00 +6°C° 0.2 mm 7 mps 734 mmHg 92%

27 October, Tuesday

Time Temperature Precipitation Wind Pressure Humidity
00:00 +5°C° 0 mm 2 mps 741 mmHg 93%
01:00 +5°C° 0 mm 2 mps 741 mmHg 93%
02:00 +5°C° 0 mm 2 mps 741 mmHg 93%
03:00 +4°C° 0 mm 2 mps 741 mmHg 92%
04:00 +4°C° 0 mm 2 mps 741 mmHg 92%
05:00 +5°C° 0 mm 1 mps 741 mmHg 92%
06:00 +5°C° 0 mm 1 mps 741 mmHg 92%
07:00 +5°C° 0 mm 2 mps 741 mmHg 91%
08:00 +5°C° 0 mm 2 mps 741 mmHg 90%
09:00 +6°C° 0 mm 2 mps 741 mmHg 89%
10:00 +7°C° 0 mm 3 mps 741 mmHg 87%
11:00 +7°C° 0 mm 4 mps 740 mmHg 85%
12:00 +8°C° 0 mm 5 mps 740 mmHg 83%
13:00 +8°C° 0 mm 5 mps 740 mmHg 84%
14:00 +8°C° 0 mm 6 mps 739 mmHg 86%
15:00 +7°C° 0 mm 6 mps 738 mmHg 87%
16:00 +6°C° 0.1 mm 7 mps 738 mmHg 88%
17:00 +6°C° 0.1 mm 7 mps 737 mmHg 89%
18:00 +6°C° 0.1 mm 8 mps 736 mmHg 90%
19:00 +8°C° 1.6 mm 7 mps 736 mmHg 92%
20:00 +8°C° 1.6 mm 7 mps 735 mmHg 95%
21:00 +8°C° 1.6 mm 6 mps 735 mmHg 97%
22:00 +8°C° 0.2 mm 7 mps 734 mmHg 95%
23:00 +6°C° 0.2 mm 7 mps 734 mmHg 92%

28 October, Wednesday

Time Temperature Precipitation Wind Pressure Humidity
00:00 +6°C° 0.2 mm 8 mps 734 mmHg 90%
01:00 +5°C° 0.2 mm 8 mps 734 mmHg 88%
02:00 +4°C° 0.2 mm 8 mps 734 mmHg 86%
03:00 +3°C° 0.2 mm 9 mps 734 mmHg 85%
04:00 +2°C° 0 mm 8 mps 733 mmHg 87%
05:00 +2°C° 0 mm 8 mps 733 mmHg 90%
06:00 +2°C° 0 mm 7 mps 733 mmHg 92%
07:00 +4°C° 0.1 mm 8 mps 733 mmHg 91%
08:00 +5°C° 0.1 mm 8 mps 733 mmHg 89%
09:00 +6°C° 0.1 mm 8 mps 733 mmHg 88%
10:00 +7°C° 0.2 mm 9 mps 733 mmHg 87%
11:00 +7°C° 0.2 mm 9 mps 733 mmHg 85%
12:00 +8°C° 0.2 mm 10 mps 733 mmHg 84%
13:00 +8°C° 0.1 mm 10 mps 732 mmHg 84%
14:00 +8°C° 0.1 mm 10 mps 732 mmHg 83%
15:00 +8°C° 0.1 mm 10 mps 732 mmHg 83%
16:00 +8°C° 0.1 mm 10 mps 731 mmHg 84%
17:00 +8°C° 0.1 mm 10 mps 731 mmHg 84%
18:00 +8°C° 0.1 mm 10 mps 730 mmHg 85%
19:00 +8°C° 0.1 mm 10 mps 730 mmHg 87%
20:00 +7°C° 0.1 mm 9 mps 730 mmHg 89%
21:00 +7°C° 0.1 mm 9 mps 730 mmHg 90%
22:00 +8°C° 0.3 mm 7 mps 730 mmHg 92%
23:00 +8°C° 0.3 mm 5 mps 731 mmHg 93%

29 October, Thursday

Time Temperature Precipitation Wind Pressure Humidity
00:00 +9°C° 0.3 mm 3 mps 731 mmHg 95%
01:00 +8°C° 0.5 mm 4 mps 732 mmHg 93%
02:00 +8°C° 0.5 mm 5 mps 733 mmHg 91%
03:00 +7°C° 0.5 mm 6 mps 734 mmHg 89%
04:00 +7°C° 0 mm 6 mps 735 mmHg 89%
05:00 +5°C° 0 mm 6 mps 736 mmHg 89%
06:00 +5°C° 0 mm 5 mps 737 mmHg 89%
07:00 +6°C° 0 mm 5 mps 737 mmHg 89%
08:00 +6°C° 0 mm 5 mps 737 mmHg 88%
09:00 +7°C° 0 mm 5 mps 738 mmHg 88%
10:00 +7°C° 0.5 mm 6 mps 738 mmHg 88%
11:00 +7°C° 0.5 mm 6 mps 737 mmHg 88%
12:00 +8°C° 0.5 mm 6 mps 737 mmHg 88%
13:00 +8°C° 0.4 mm 5 mps 737 mmHg 89%
14:00 +8°C° 0.4 mm 5 mps 737 mmHg 90%
15:00 +7°C° 0.4 mm 4 mps 736 mmHg 91%
16:00 +7°C° 0 mm 5 mps 737 mmHg 91%
17:00 +5°C° 0 mm 6 mps 737 mmHg 92%
18:00 +5°C° 0 mm 7 mps 737 mmHg 92%
19:00 +5°C° 0 mm 8 mps 737 mmHg 91%
20:00 +6°C° 0 mm 9 mps 737 mmHg 90%
21:00 +6°C° 0 mm 9 mps 737 mmHg 89%
22:00 +6°C° 0 mm 9 mps 738 mmHg 87%
23:00 +6°C° 0 mm 9 mps 738 mmHg 85%
Show more